Year,Month,Day,Hour,Minute,Value (Times are PST for temperature in C)
2011,09,21,00,00,13.10
2011,09,21,00,01,13.00
2011,09,21,00,02,13.00
2011,09,21,00,03,13.00
2011,09,21,00,04,13.00
2011,09,21,00,05,13.00
2011,09,21,00,06,13.00
2011,09,21,00,07,13.00
2011,09,21,00,08,13.00
2011,09,21,00,09,13.00
2011,09,21,00,10,13.00
2011,09,21,00,11,13.00
2011,09,21,00,12,13.00
2011,09,21,00,13,13.10
2011,09,21,00,14,13.10
2011,09,21,00,15,13.10
2011,09,21,00,16,13.10
2011,09,21,00,17,13.10
2011,09,21,00,18,13.10
2011,09,21,00,19,13.10
2011,09,21,00,20,13.10
2011,09,21,00,21,13.10
2011,09,21,00,22,13.10
2011,09,21,00,23,13.10
2011,09,21,00,24,13.10
2011,09,21,00,25,13.10
2011,09,21,00,26,13.10
2011,09,21,00,27,13.10
2011,09,21,00,28,13.10
2011,09,21,00,29,13.10
2011,09,21,00,30,13.10
2011,09,21,00,31,13.10
2011,09,21,00,32,13.10
2011,09,21,00,33,13.10
2011,09,21,00,34,13.10
2011,09,21,00,35,13.10
2011,09,21,00,36,13.10
2011,09,21,00,37,13.10
2011,09,21,00,38,13.10
2011,09,21,00,39,13.10
2011,09,21,00,40,13.10
2011,09,21,00,41,13.10
2011,09,21,00,42,13.10
2011,09,21,00,43,13.10
2011,09,21,00,44,13.10
2011,09,21,00,45,13.10
2011,09,21,00,46,13.10
2011,09,21,00,47,13.10
2011,09,21,00,48,13.10
2011,09,21,00,49,13.10
2011,09,21,00,50,13.10
2011,09,21,00,51,13.20
2011,09,21,00,52,13.20
2011,09,21,00,53,13.20
2011,09,21,00,54,13.20
2011,09,21,00,55,13.20
2011,09,21,00,56,13.20
2011,09,21,00,57,13.20
2011,09,21,00,58,13.20
2011,09,21,00,59,13.20
2011,09,21,01,00,13.20
2011,09,21,01,01,13.10
2011,09,21,01,02,13.10
2011,09,21,01,03,13.10
2011,09,21,01,04,13.10
2011,09,21,01,05,13.10
2011,09,21,01,06,13.10
2011,09,21,01,07,13.10
2011,09,21,01,08,13.10
2011,09,21,01,09,13.10
2011,09,21,01,10,13.20
2011,09,21,01,11,13.20
2011,09,21,01,12,13.20
2011,09,21,01,13,13.20
2011,09,21,01,14,13.20
2011,09,21,01,15,13.20
2011,09,21,01,16,13.20
2011,09,21,01,17,13.20
2011,09,21,01,18,13.20
2011,09,21,01,19,13.20
2011,09,21,01,20,13.20
2011,09,21,01,21,13.20
2011,09,21,01,22,13.20
2011,09,21,01,23,13.20
2011,09,21,01,24,13.20
2011,09,21,01,25,13.20
2011,09,21,01,26,13.20
2011,09,21,01,27,13.20
2011,09,21,01,28,13.20
2011,09,21,01,29,13.20
2011,09,21,01,30,13.20
2011,09,21,01,31,13.20
2011,09,21,01,32,13.20
2011,09,21,01,33,13.20
2011,09,21,01,34,13.20
2011,09,21,01,35,13.20
2011,09,21,01,36,13.20
2011,09,21,01,37,13.20
2011,09,21,01,38,13.20
2011,09,21,01,39,13.20
2011,09,21,01,40,13.20
2011,09,21,01,41,13.30
2011,09,21,01,42,13.30
2011,09,21,01,43,13.30
2011,09,21,01,44,13.30
2011,09,21,01,45,13.30
2011,09,21,01,46,13.30
2011,09,21,01,47,13.30
2011,09,21,01,48,13.20
2011,09,21,01,49,13.20
2011,09,21,01,50,13.20
2011,09,21,01,51,13.20
2011,09,21,01,52,13.20
2011,09,21,01,53,13.20
2011,09,21,01,54,13.20
2011,09,21,01,55,13.20
2011,09,21,01,56,13.20
2011,09,21,01,57,13.20
2011,09,21,01,58,13.20
2011,09,21,01,59,13.20
2011,09,21,02,00,13.20
2011,09,21,02,01,13.20
2011,09,21,02,02,13.20
2011,09,21,02,03,13.20
2011,09,21,02,04,13.20
2011,09,21,02,05,13.20
2011,09,21,02,06,13.20
2011,09,21,02,07,13.20
2011,09,21,02,08,13.20
2011,09,21,02,09,13.20
2011,09,21,02,10,13.20
2011,09,21,02,11,13.20
2011,09,21,02,12,13.20
2011,09,21,02,13,13.20
2011,09,21,02,14,13.10
2011,09,21,02,15,13.10
2011,09,21,02,16,13.10
2011,09,21,02,17,13.10
2011,09,21,02,18,13.10
2011,09,21,02,19,13.10
2011,09,21,02,20,13.10
2011,09,21,02,21,13.10
2011,09,21,02,22,13.00
2011,09,21,02,23,13.00
2011,09,21,02,24,13.00
2011,09,21,02,25,13.00
2011,09,21,02,26,13.00
2011,09,21,02,27,13.00
2011,09,21,02,28,13.00
2011,09,21,02,29,12.90
2011,09,21,02,30,12.90
2011,09,21,02,31,12.90
2011,09,21,02,32,12.90
2011,09,21,02,33,12.90
2011,09,21,02,34,12.90
2011,09,21,02,35,12.90
2011,09,21,02,36,12.90
2011,09,21,02,37,12.90
2011,09,21,02,38,12.90
2011,09,21,02,39,12.90
2011,09,21,02,40,13.00
2011,09,21,02,41,13.00
2011,09,21,02,42,13.00
2011,09,21,02,43,13.00
2011,09,21,02,44,13.00
2011,09,21,02,45,13.00
2011,09,21,02,46,13.10
2011,09,21,02,47,13.10
2011,09,21,02,48,13.10
2011,09,21,02,49,13.10
2011,09,21,02,50,13.10
2011,09,21,02,51,13.10
2011,09,21,02,52,13.10
2011,09,21,02,53,13.10
2011,09,21,02,54,13.10
2011,09,21,02,55,13.10
2011,09,21,02,56,13.10
2011,09,21,02,57,13.10
2011,09,21,02,58,13.10
2011,09,21,02,59,13.10
2011,09,21,03,00,13.10
2011,09,21,03,01,13.10
2011,09,21,03,02,13.10
2011,09,21,03,03,13.10
2011,09,21,03,04,13.10
2011,09,21,03,05,13.10
2011,09,21,03,06,13.10
2011,09,21,03,07,13.10
2011,09,21,03,08,13.10
2011,09,21,03,09,13.10
2011,09,21,03,10,13.10
2011,09,21,03,11,13.10
2011,09,21,03,12,13.10
2011,09,21,03,13,13.10
2011,09,21,03,14,13.10
2011,09,21,03,15,13.10
2011,09,21,03,16,13.10
2011,09,21,03,17,13.10
2011,09,21,03,18,13.10
2011,09,21,03,19,13.10
2011,09,21,03,20,13.10
2011,09,21,03,21,13.10
2011,09,21,03,22,13.10
2011,09,21,03,23,13.10
2011,09,21,03,24,13.10
2011,09,21,03,25,13.10
2011,09,21,03,26,13.10
2011,09,21,03,27,13.10
2011,09,21,03,28,13.10
2011,09,21,03,29,13.10
2011,09,21,03,30,13.10
2011,09,21,03,31,13.10
2011,09,21,03,32,13.10
2011,09,21,03,33,13.10
2011,09,21,03,34,13.10
2011,09,21,03,35,13.10
2011,09,21,03,36,13.10
2011,09,21,03,37,13.10
2011,09,21,03,38,13.10
2011,09,21,03,39,13.10
2011,09,21,03,40,13.10
2011,09,21,03,41,13.10
2011,09,21,03,42,13.10
2011,09,21,03,43,13.10
2011,09,21,03,44,13.10
2011,09,21,03,45,13.10
2011,09,21,03,46,13.00
2011,09,21,03,47,13.00
2011,09,21,03,48,13.00
2011,09,21,03,49,13.00
2011,09,21,03,50,13.00
2011,09,21,03,51,13.00
2011,09,21,03,52,13.00
2011,09,21,03,53,13.00
2011,09,21,03,54,13.00
2011,09,21,03,55,13.00
2011,09,21,03,56,13.00
2011,09,21,03,57,13.00
2011,09,21,03,58,13.00
2011,09,21,03,59,13.00
2011,09,21,04,00,13.00
2011,09,21,04,01,13.00
2011,09,21,04,02,13.00
2011,09,21,04,03,13.10
2011,09,21,04,04,13.10
2011,09,21,04,05,13.10
2011,09,21,04,06,13.10
2011,09,21,04,07,13.10
2011,09,21,04,08,13.10
2011,09,21,04,09,13.10
2011,09,21,04,10,13.10
2011,09,21,04,11,13.10
2011,09,21,04,12,13.10
2011,09,21,04,13,13.10
2011,09,21,04,14,13.10
2011,09,21,04,15,13.10
2011,09,21,04,16,13.10
2011,09,21,04,17,13.10
2011,09,21,04,18,13.10
2011,09,21,04,19,13.10
2011,09,21,04,20,13.10
2011,09,21,04,21,13.10
2011,09,21,04,22,13.10
2011,09,21,04,23,13.10
2011,09,21,04,24,13.10
2011,09,21,04,25,13.10
2011,09,21,04,26,13.10
2011,09,21,04,27,13.20
2011,09,21,04,28,13.20
2011,09,21,04,29,13.20
2011,09,21,04,30,13.20
2011,09,21,04,31,13.20
2011,09,21,04,32,13.20
2011,09,21,04,33,13.20
2011,09,21,04,34,13.20
2011,09,21,04,35,13.20
2011,09,21,04,36,13.30
2011,09,21,04,37,13.30
2011,09,21,04,38,13.30
2011,09,21,04,39,13.30
2011,09,21,04,40,13.30
2011,09,21,04,41,13.30
2011,09,21,04,42,13.30
2011,09,21,04,43,13.30
2011,09,21,04,44,13.30
2011,09,21,04,45,13.30
2011,09,21,04,46,13.30
2011,09,21,04,47,13.30
2011,09,21,04,48,13.30
2011,09,21,04,49,13.30
2011,09,21,04,50,13.30
2011,09,21,04,51,13.30
2011,09,21,04,52,13.30
2011,09,21,04,53,13.30
2011,09,21,04,54,13.30
2011,09,21,04,55,13.30
2011,09,21,04,56,13.30
2011,09,21,04,57,13.30
2011,09,21,04,58,13.30
2011,09,21,04,59,13.30
2011,09,21,05,00,13.30
2011,09,21,05,01,13.30
2011,09,21,05,02,13.30
2011,09,21,05,03,13.30
2011,09,21,05,04,13.30
2011,09,21,05,05,13.30
2011,09,21,05,06,13.30
2011,09,21,05,07,13.30
2011,09,21,05,08,13.30
2011,09,21,05,09,13.40
2011,09,21,05,10,13.40
2011,09,21,05,11,13.40
2011,09,21,05,12,13.40
2011,09,21,05,13,13.40
2011,09,21,05,14,13.40
2011,09,21,05,15,13.40
2011,09,21,05,16,13.40
2011,09,21,05,17,13.50
2011,09,21,05,18,13.50
2011,09,21,05,19,13.50
2011,09,21,05,20,13.50
2011,09,21,05,21,13.50
2011,09,21,05,22,13.50
2011,09,21,05,23,13.50
2011,09,21,05,24,13.60
2011,09,21,05,25,13.60
2011,09,21,05,26,13.60
2011,09,21,05,27,13.60
2011,09,21,05,28,13.60
2011,09,21,05,29,13.60
2011,09,21,05,30,13.60
2011,09,21,05,31,13.60
2011,09,21,05,32,13.60
2011,09,21,05,33,13.60
2011,09,21,05,34,13.60
2011,09,21,05,35,13.60
2011,09,21,05,36,13.60
2011,09,21,05,37,13.60
2011,09,21,05,38,13.60
2011,09,21,05,39,13.60
2011,09,21,05,40,13.60
2011,09,21,05,41,13.60
2011,09,21,05,42,13.60
2011,09,21,05,43,13.60
2011,09,21,05,44,13.60
2011,09,21,05,45,13.60
2011,09,21,05,46,13.60
2011,09,21,05,47,13.60
2011,09,21,05,48,13.60
2011,09,21,05,49,13.60
2011,09,21,05,50,13.60
2011,09,21,05,51,13.60
2011,09,21,05,52,13.60
2011,09,21,05,53,13.60
2011,09,21,05,54,13.60
2011,09,21,05,55,13.60
2011,09,21,05,56,13.60
2011,09,21,05,57,13.60
2011,09,21,05,58,13.60
2011,09,21,05,59,13.50
2011,09,21,06,00,13.50
2011,09,21,06,01,13.50
2011,09,21,06,02,13.50
2011,09,21,06,03,13.50
2011,09,21,06,04,13.50
2011,09,21,06,05,13.50
2011,09,21,06,06,13.50
2011,09,21,06,07,13.50
2011,09,21,06,08,13.50
2011,09,21,06,09,13.50
2011,09,21,06,10,13.50
2011,09,21,06,11,13.50
2011,09,21,06,12,13.50
2011,09,21,06,13,13.40
2011,09,21,06,14,13.40
2011,09,21,06,15,13.40
2011,09,21,06,16,13.40
2011,09,21,06,17,13.40
2011,09,21,06,18,13.40
2011,09,21,06,19,13.40
2011,09,21,06,20,13.40
2011,09,21,06,21,13.40
2011,09,21,06,22,13.40
2011,09,21,06,23,13.40
2011,09,21,06,24,13.40
2011,09,21,06,25,13.30
2011,09,21,06,26,13.30
2011,09,21,06,27,13.30
2011,09,21,06,28,13.30
2011,09,21,06,29,13.30
2011,09,21,06,30,13.30
2011,09,21,06,31,13.20
2011,09,21,06,32,13.20
2011,09,21,06,33,13.20
2011,09,21,06,34,13.20
2011,09,21,06,35,13.20
2011,09,21,06,36,13.20
2011,09,21,06,37,13.20
2011,09,21,06,38,13.20
2011,09,21,06,39,13.10
2011,09,21,06,40,13.10
2011,09,21,06,41,13.10
2011,09,21,06,42,13.10
2011,09,21,06,43,13.10
2011,09,21,06,44,13.10
2011,09,21,06,45,13.10
2011,09,21,06,46,13.10
2011,09,21,06,47,13.10
2011,09,21,06,48,13.10
2011,09,21,06,49,13.10
2011,09,21,06,50,13.10
2011,09,21,06,51,13.10
2011,09,21,06,52,13.10
2011,09,21,06,53,13.10
2011,09,21,06,54,13.10
2011,09,21,06,55,13.10
2011,09,21,06,56,13.20
2011,09,21,06,57,13.20
2011,09,21,06,58,13.20
2011,09,21,06,59,13.20
2011,09,21,07,00,13.20
2011,09,21,07,01,13.20
2011,09,21,07,02,13.20
2011,09,21,07,03,13.20
2011,09,21,07,04,13.20
2011,09,21,07,05,13.20
2011,09,21,07,06,13.20
2011,09,21,07,07,13.20
2011,09,21,07,08,13.20
2011,09,21,07,09,13.20
2011,09,21,07,10,13.20
2011,09,21,07,11,13.10
2011,09,21,07,12,13.10
2011,09,21,07,13,13.10
2011,09,21,07,14,13.10
2011,09,21,07,15,13.10
2011,09,21,07,16,13.10
2011,09,21,07,17,13.10
2011,09,21,07,18,13.10
2011,09,21,07,19,13.10
2011,09,21,07,20,13.10
2011,09,21,07,21,13.10
2011,09,21,07,22,13.20
2011,09,21,07,23,13.20
2011,09,21,07,24,13.20
2011,09,21,07,25,13.20
2011,09,21,07,26,13.20
2011,09,21,07,27,13.20
2011,09,21,07,28,13.20
2011,09,21,07,29,13.20
2011,09,21,07,30,13.20
2011,09,21,07,31,13.20
2011,09,21,07,32,13.20
2011,09,21,07,33,13.20
2011,09,21,07,34,13.20
2011,09,21,07,35,13.20
2011,09,21,07,36,13.20
2011,09,21,07,37,13.20
2011,09,21,07,38,13.20
2011,09,21,07,39,13.30
2011,09,21,07,40,13.30
2011,09,21,07,41,13.30
2011,09,21,07,42,13.30
2011,09,21,07,43,13.30
2011,09,21,07,44,13.30
2011,09,21,07,45,13.30
2011,09,21,07,46,13.30
2011,09,21,07,47,13.30
2011,09,21,07,48,13.30
2011,09,21,07,49,13.40
2011,09,21,07,50,13.40
2011,09,21,07,51,13.40
2011,09,21,07,52,13.40
2011,09,21,07,53,13.40
2011,09,21,07,54,13.40
2011,09,21,07,55,13.50
2011,09,21,07,56,13.50
2011,09,21,07,57,13.50
2011,09,21,07,58,13.50
2011,09,21,07,59,13.60
2011,09,21,08,00,13.60
2011,09,21,08,01,13.60
2011,09,21,08,02,13.60
2011,09,21,08,03,13.60
2011,09,21,08,04,13.70
2011,09,21,08,05,13.70
2011,09,21,08,06,13.70
2011,09,21,08,07,13.70
2011,09,21,08,08,13.70
2011,09,21,08,09,13.70
2011,09,21,08,10,13.80
2011,09,21,08,11,13.80
2011,09,21,08,12,13.80
2011,09,21,08,13,13.80
2011,09,21,08,14,13.80
2011,09,21,08,15,13.80
2011,09,21,08,16,13.80
2011,09,21,08,17,13.90
2011,09,21,08,18,13.90
2011,09,21,08,19,13.90
2011,09,21,08,20,13.90
2011,09,21,08,21,14.00
2011,09,21,08,22,14.00
2011,09,21,08,23,14.00
2011,09,21,08,24,14.00
2011,09,21,08,25,14.10
2011,09,21,08,26,14.10
2011,09,21,08,27,14.10
2011,09,21,08,28,14.10
2011,09,21,08,29,14.10
2011,09,21,08,30,14.20
2011,09,21,08,31,14.20
2011,09,21,08,32,14.20
2011,09,21,08,33,14.20
2011,09,21,08,34,14.30
2011,09,21,08,35,14.30
2011,09,21,08,36,14.30
2011,09,21,08,37,14.30
2011,09,21,08,38,14.30
2011,09,21,08,39,14.30
2011,09,21,08,40,14.40
2011,09,21,08,41,14.40
2011,09,21,08,42,14.40
2011,09,21,08,43,14.40
2011,09,21,08,44,14.50
2011,09,21,08,45,14.50
2011,09,21,08,46,14.50
2011,09,21,08,48,14.60
2011,09,21,08,49,14.60
2011,09,21,08,50,14.60
2011,09,21,08,51,14.60
2011,09,21,08,52,14.70
2011,09,21,08,53,14.70
2011,09,21,08,54,14.70
2011,09,21,08,55,14.80
2011,09,21,08,56,14.80
2011,09,21,08,57,14.80
2011,09,21,08,58,14.80
2011,09,21,08,59,14.90
2011,09,21,09,00,14.90
2011,09,21,09,01,14.90
2011,09,21,09,02,14.90
2011,09,21,09,03,14.90
2011,09,21,09,04,15.00
2011,09,21,09,05,15.00
2011,09,21,09,06,15.00
2011,09,21,09,07,15.10
2011,09,21,09,08,15.10
2011,09,21,09,09,15.10
2011,09,21,09,10,15.10
2011,09,21,09,11,15.10
2011,09,21,09,12,15.20
2011,09,21,09,13,15.20
2011,09,21,09,14,15.20
2011,09,21,09,15,15.20
2011,09,21,09,16,15.30
2011,09,21,09,17,15.30
2011,09,21,09,18,15.30
2011,09,21,09,19,15.30
2011,09,21,09,20,15.30
2011,09,21,09,21,15.30
2011,09,21,09,22,15.40
2011,09,21,09,23,15.40
2011,09,21,09,24,15.40
2011,09,21,09,25,15.50
2011,09,21,09,26,15.50
2011,09,21,09,27,15.50
2011,09,21,09,28,15.60
2011,09,21,09,29,15.60
2011,09,21,09,30,15.60
2011,09,21,09,31,15.60
2011,09,21,09,32,15.70
2011,09,21,09,33,15.70
2011,09,21,09,34,15.70
2011,09,21,09,35,15.70
2011,09,21,09,36,15.80
2011,09,21,09,37,15.80
2011,09,21,09,38,15.80
2011,09,21,09,39,15.90
2011,09,21,09,40,15.90
2011,09,21,09,41,15.90
2011,09,21,09,42,15.90
2011,09,21,09,43,15.90
2011,09,21,09,44,16.00
2011,09,21,09,45,16.00
2011,09,21,09,46,16.10
2011,09,21,09,47,16.10
2011,09,21,09,48,16.10
2011,09,21,09,49,16.10
2011,09,21,09,50,16.20
2011,09,21,09,51,16.20
2011,09,21,09,52,16.20
2011,09,21,09,53,16.20
2011,09,21,09,54,16.30
2011,09,21,09,55,16.30
2011,09,21,09,56,16.30
2011,09,21,09,57,16.30
2011,09,21,09,58,16.40
2011,09,21,09,59,16.40
2011,09,21,10,00,16.40
2011,09,21,10,01,16.50
2011,09,21,10,02,16.50
2011,09,21,10,03,16.60
2011,09,21,10,04,16.60
2011,09,21,10,05,16.60
2011,09,21,10,06,16.60
2011,09,21,10,07,16.70
2011,09,21,10,08,16.70
2011,09,21,10,09,16.70
2011,09,21,10,10,16.70
2011,09,21,10,11,16.70
2011,09,21,10,12,16.80
2011,09,21,10,13,16.80
2011,09,21,10,14,16.80
2011,09,21,10,15,16.80
2011,09,21,10,16,16.80
2011,09,21,10,17,16.90
2011,09,21,10,18,16.90
2011,09,21,10,19,16.90
2011,09,21,10,20,17.00
2011,09,21,10,21,17.00
2011,09,21,10,22,17.10
2011,09,21,10,23,17.10
2011,09,21,10,24,17.10
2011,09,21,10,25,17.10
2011,09,21,10,26,17.20
2011,09,21,10,27,17.20
2011,09,21,10,28,17.20
2011,09,21,10,29,17.20
2011,09,21,10,30,17.20
2011,09,21,10,31,17.20
2011,09,21,10,32,17.20
2011,09,21,10,33,17.20
2011,09,21,10,34,17.10
2011,09,21,10,35,17.10
2011,09,21,10,36,17.10
2011,09,21,10,37,17.10
2011,09,21,10,38,17.10
2011,09,21,10,39,17.10
2011,09,21,10,40,17.10
2011,09,21,10,41,17.10
2011,09,21,10,42,17.10
2011,09,21,10,43,17.00
2011,09,21,10,44,17.00
2011,09,21,10,45,17.10
2011,09,21,10,46,17.10
2011,09,21,10,47,17.10
2011,09,21,10,48,17.10
2011,09,21,10,49,17.10
2011,09,21,10,50,17.20
2011,09,21,10,51,17.20
2011,09,21,10,52,17.20
2011,09,21,10,53,17.20
2011,09,21,10,54,17.20
2011,09,21,10,55,17.20
2011,09,21,10,56,17.20
2011,09,21,10,57,17.20
2011,09,21,10,58,17.20
2011,09,21,10,59,17.20
2011,09,21,11,00,17.20
2011,09,21,11,01,17.20
2011,09,21,11,02,17.20
2011,09,21,11,03,17.20
2011,09,21,11,04,17.20
2011,09,21,11,05,17.10
2011,09,21,11,06,17.10
2011,09,21,11,07,17.10
2011,09,21,11,08,17.20
2011,09,21,11,09,17.20
2011,09,21,11,10,17.30
2011,09,21,11,11,17.30
2011,09,21,11,12,17.40
2011,09,21,11,13,17.40
2011,09,21,11,14,17.40
2011,09,21,11,15,17.50
2011,09,21,11,16,17.50
2011,09,21,11,17,17.50
2011,09,21,11,18,17.50
2011,09,21,11,19,17.60
2011,09,21,11,20,17.50
2011,09,21,11,21,17.50
2011,09,21,11,22,17.40
2011,09,21,11,23,17.40
2011,09,21,11,24,17.40
2011,09,21,11,25,17.40
2011,09,21,11,26,17.40
2011,09,21,11,27,17.40
2011,09,21,11,28,17.40
2011,09,21,11,29,17.40
2011,09,21,11,30,17.40
2011,09,21,11,31,17.40
2011,09,21,11,32,17.40
2011,09,21,11,33,17.40
2011,09,21,11,34,17.40
2011,09,21,11,35,17.40
2011,09,21,11,36,17.40
2011,09,21,11,37,17.40
2011,09,21,11,38,17.40
2011,09,21,11,39,17.40
2011,09,21,11,40,17.40
2011,09,21,11,41,17.40
2011,09,21,11,42,17.50
2011,09,21,11,43,17.40
2011,09,21,11,44,17.40
2011,09,21,11,45,17.40
2011,09,21,11,46,17.30
2011,09,21,11,47,17.30
2011,09,21,11,48,17.30
2011,09,21,11,49,17.20
2011,09,21,11,50,17.10
2011,09,21,11,51,17.00
2011,09,21,11,52,17.00
2011,09,21,11,53,16.90
2011,09,21,11,54,16.80
2011,09,21,11,55,16.80
2011,09,21,11,56,16.80
2011,09,21,11,57,16.80
2011,09,21,11,58,16.80
2011,09,21,11,59,16.70
2011,09,21,12,00,16.70
2011,09,21,12,01,16.70
2011,09,21,12,02,16.70
2011,09,21,12,03,16.70
2011,09,21,12,04,16.70
2011,09,21,12,05,16.70
2011,09,21,12,06,16.80
2011,09,21,12,07,16.80
2011,09,21,12,08,16.80
2011,09,21,12,09,16.90
2011,09,21,12,10,16.90
2011,09,21,12,11,16.90
2011,09,21,12,12,17.00
2011,09,21,12,13,17.00
2011,09,21,12,14,17.10
2011,09,21,12,15,17.20
2011,09,21,12,16,17.20
2011,09,21,12,17,17.20
2011,09,21,12,18,17.30
2011,09,21,12,19,17.30
2011,09,21,12,20,17.30
2011,09,21,12,21,17.30
2011,09,21,12,22,17.30
2011,09,21,12,23,17.30
2011,09,21,12,24,17.30
2011,09,21,12,25,17.40
2011,09,21,12,26,17.50
2011,09,21,12,27,17.60
2011,09,21,12,28,17.70
2011,09,21,12,29,17.80
2011,09,21,12,30,17.80
2011,09,21,12,31,17.80
2011,09,21,12,32,17.80
2011,09,21,12,33,17.80
2011,09,21,12,34,17.80
2011,09,21,12,35,17.70
2011,09,21,12,36,17.70
2011,09,21,12,37,17.70
2011,09,21,12,38,17.60
2011,09,21,12,39,17.60
2011,09,21,12,40,17.60
2011,09,21,12,41,17.50
2011,09,21,12,42,17.50
2011,09,21,12,43,17.40
2011,09,21,12,44,17.40
2011,09,21,12,45,17.30
2011,09,21,12,46,17.30
2011,09,21,12,47,17.30
2011,09,21,12,48,17.30
2011,09,21,12,49,17.30
2011,09,21,12,50,17.30
2011,09,21,12,51,17.30
2011,09,21,12,52,17.30
2011,09,21,12,53,17.30
2011,09,21,12,54,17.30
2011,09,21,12,55,17.20
2011,09,21,12,56,17.20
2011,09,21,12,57,17.20
2011,09,21,12,58,17.20
2011,09,21,12,59,17.10
2011,09,21,13,00,17.10
2011,09,21,13,01,17.10
2011,09,21,13,02,17.00
2011,09,21,13,03,17.00
2011,09,21,13,04,17.00
2011,09,21,13,05,17.00
2011,09,21,13,06,17.00
2011,09,21,13,07,17.00
2011,09,21,13,08,17.00
2011,09,21,13,09,17.00
2011,09,21,13,10,17.00
2011,09,21,13,11,17.00
2011,09,21,13,12,17.00
2011,09,21,13,13,17.00
2011,09,21,13,14,17.00
2011,09,21,13,15,17.00
2011,09,21,13,16,17.00
2011,09,21,13,17,17.00
2011,09,21,13,18,17.00
2011,09,21,13,19,17.00
2011,09,21,13,20,17.00
2011,09,21,13,21,17.10
2011,09,21,13,22,17.10
2011,09,21,13,23,17.10
2011,09,21,13,24,17.10
2011,09,21,13,25,17.10
2011,09,21,13,26,17.20
2011,09,21,13,27,17.20
2011,09,21,13,28,17.10
2011,09,21,13,29,17.10
2011,09,21,13,30,17.10
2011,09,21,13,31,17.10
2011,09,21,13,32,17.10
2011,09,21,13,33,17.10
2011,09,21,13,34,17.10
2011,09,21,13,35,17.20
2011,09,21,13,36,17.20
2011,09,21,13,37,17.10
2011,09,21,13,38,17.10
2011,09,21,13,39,17.10
2011,09,21,13,40,17.10
2011,09,21,13,41,17.10
2011,09,21,13,42,17.10
2011,09,21,13,43,17.10
2011,09,21,13,44,17.10
2011,09,21,13,45,17.10
2011,09,21,13,46,17.10
2011,09,21,13,47,17.10
2011,09,21,13,48,17.10
2011,09,21,13,49,17.10
2011,09,21,13,50,17.10
2011,09,21,13,51,17.00
2011,09,21,13,52,17.00
2011,09,21,13,53,17.00
2011,09,21,13,54,17.00
2011,09,21,13,55,17.00
2011,09,21,13,56,17.00
2011,09,21,13,57,16.90
2011,09,21,13,58,16.90
2011,09,21,13,59,16.90
2011,09,21,14,00,16.90
2011,09,21,14,01,16.90
2011,09,21,14,02,16.90
2011,09,21,14,03,16.80
2011,09,21,14,04,16.80
2011,09,21,14,05,16.80
2011,09,21,14,06,16.80
2011,09,21,14,07,16.80
2011,09,21,14,08,16.80
2011,09,21,14,09,16.80
2011,09,21,14,10,16.80
2011,09,21,14,11,16.90
2011,09,21,14,12,16.90
2011,09,21,14,13,16.90
2011,09,21,14,14,16.90
2011,09,21,14,15,16.90
2011,09,21,14,16,16.90
2011,09,21,14,17,16.90
2011,09,21,14,18,16.90
2011,09,21,14,19,16.90
2011,09,21,14,20,16.90
2011,09,21,14,21,16.90
2011,09,21,14,22,16.90
2011,09,21,14,23,16.90
2011,09,21,14,24,16.90
2011,09,21,14,25,17.00
2011,09,21,14,26,17.00
2011,09,21,14,27,17.00
2011,09,21,14,28,17.00
2011,09,21,14,29,17.00
2011,09,21,14,30,17.00
2011,09,21,14,31,17.00
2011,09,21,14,32,17.00
2011,09,21,14,33,17.10
2011,09,21,14,34,17.10
2011,09,21,14,35,17.10
2011,09,21,14,36,17.10
2011,09,21,14,37,17.10
2011,09,21,14,38,17.20
2011,09,21,14,39,17.20
2011,09,21,14,40,17.20
2011,09,21,14,41,17.20
2011,09,21,14,42,17.20
2011,09,21,14,43,17.20
2011,09,21,14,44,17.20
2011,09,21,14,45,17.20
2011,09,21,14,46,17.20
2011,09,21,14,47,17.20
2011,09,21,14,48,17.20
2011,09,21,14,49,17.30
2011,09,21,14,50,17.30
2011,09,21,14,51,17.30
2011,09,21,14,52,17.30
2011,09,21,14,53,17.30
2011,09,21,14,54,17.30
2011,09,21,14,55,17.30
2011,09,21,14,56,17.30
2011,09,21,14,57,17.30
2011,09,21,14,58,17.30
2011,09,21,14,59,17.40
2011,09,21,15,00,17.50
2011,09,21,15,01,17.50
2011,09,21,15,02,17.60
2011,09,21,15,03,17.70
2011,09,21,15,04,17.70
2011,09,21,15,05,17.80
2011,09,21,15,06,17.90
2011,09,21,15,07,17.90
2011,09,21,15,08,18.00
2011,09,21,15,09,18.00
2011,09,21,15,10,18.00
2011,09,21,15,11,18.10
2011,09,21,15,12,18.10
2011,09,21,15,13,18.10
2011,09,21,15,14,18.10
2011,09,21,15,15,18.00
2011,09,21,15,16,18.00
2011,09,21,15,17,18.00
2011,09,21,15,18,17.90
2011,09,21,15,19,17.90
2011,09,21,15,20,17.90
2011,09,21,15,21,17.90
2011,09,21,15,22,17.90
2011,09,21,15,23,18.00
2011,09,21,15,24,18.00
2011,09,21,15,25,18.00
2011,09,21,15,26,18.00
2011,09,21,15,27,18.00
2011,09,21,15,28,18.10
2011,09,21,15,29,18.10
2011,09,21,15,30,18.10
2011,09,21,15,31,18.10
2011,09,21,15,32,18.00
2011,09,21,15,33,18.00
2011,09,21,15,34,18.00
2011,09,21,15,35,18.00
2011,09,21,15,36,18.00
2011,09,21,15,37,17.90
2011,09,21,15,38,18.00
2011,09,21,15,39,18.00
2011,09,21,15,40,18.00
2011,09,21,15,41,18.00
2011,09,21,15,42,18.10
2011,09,21,15,43,18.10
2011,09,21,15,44,18.10
2011,09,21,15,45,18.10
2011,09,21,15,46,18.10
2011,09,21,15,47,18.10
2011,09,21,15,48,18.10
2011,09,21,15,49,18.10
2011,09,21,15,50,18.10
2011,09,21,15,51,18.10
2011,09,21,15,52,18.10
2011,09,21,15,53,18.10
2011,09,21,15,54,18.20
2011,09,21,15,55,18.20
2011,09,21,15,56,18.20
2011,09,21,15,57,18.20
2011,09,21,15,58,18.20
2011,09,21,15,59,18.20
2011,09,21,16,00,18.20
2011,09,21,16,01,18.20
2011,09,21,16,02,18.20
2011,09,21,16,03,18.20
2011,09,21,16,04,18.20
2011,09,21,16,05,18.30
2011,09,21,16,06,18.30
2011,09,21,16,07,18.30
2011,09,21,16,08,18.30
2011,09,21,16,09,18.30
2011,09,21,16,10,18.30
2011,09,21,16,11,18.30
2011,09,21,16,12,18.30
2011,09,21,16,13,18.30
2011,09,21,16,14,18.30
2011,09,21,16,15,18.30
2011,09,21,16,16,18.30
2011,09,21,16,17,18.20
2011,09,21,16,18,18.20
2011,09,21,16,19,18.20
2011,09,21,16,20,18.20
2011,09,21,16,21,18.20
2011,09,21,16,22,18.20
2011,09,21,16,23,18.20
2011,09,21,16,24,18.20
2011,09,21,16,25,18.20
2011,09,21,16,26,18.20
2011,09,21,16,27,18.20
2011,09,21,16,28,18.20
2011,09,21,16,29,18.20
2011,09,21,16,30,18.20
2011,09,21,16,31,18.20
2011,09,21,16,32,18.20
2011,09,21,16,33,18.10
2011,09,21,16,34,18.10
2011,09,21,16,35,18.10
2011,09,21,16,36,18.00
2011,09,21,16,37,18.00
2011,09,21,16,38,17.90
2011,09,21,16,39,17.90
2011,09,21,16,40,17.90
2011,09,21,16,41,17.90
2011,09,21,16,42,17.80
2011,09,21,16,43,17.80
2011,09,21,16,44,17.80
2011,09,21,16,45,17.80
2011,09,21,16,46,17.80
2011,09,21,16,47,17.70
2011,09,21,16,48,17.70
2011,09,21,16,49,17.70
2011,09,21,16,50,17.60
2011,09,21,16,51,17.60
2011,09,21,16,52,17.60
2011,09,21,16,53,17.60
2011,09,21,16,54,17.60
2011,09,21,16,55,17.50
2011,09,21,16,56,17.50
2011,09,21,16,57,17.50
2011,09,21,16,58,17.50
2011,09,21,16,59,17.40
2011,09,21,17,00,17.40
2011,09,21,17,01,17.30
2011,09,21,17,02,17.30
2011,09,21,17,03,17.30
2011,09,21,17,04,17.20
2011,09,21,17,05,17.20
2011,09,21,17,06,17.20
2011,09,21,17,07,17.20
2011,09,21,17,08,17.10
2011,09,21,17,09,17.10
2011,09,21,17,10,17.10
2011,09,21,17,11,17.10
2011,09,21,17,12,17.00
2011,09,21,17,13,17.00
2011,09,21,17,14,17.00
2011,09,21,17,15,16.90
2011,09,21,17,16,16.90
2011,09,21,17,17,16.90
2011,09,21,17,18,16.90
2011,09,21,17,19,16.90
2011,09,21,17,20,16.80